CAPE
27 24 19 21 21 22 19 25 16 8 8 11 22 28 32 6 18 1 0 1 1 0 0 0 1 0 0 1 0 1 0 0 0 0 0 0 0 0 0 0 0 0 0 0 0 0 0 0 0 0 0 0 0 0
32 23 17 8 7 13 23 21 21 16 5 13 12 20 30 14 25 0 0 0 0 0 0 0 0 0 0 0 0 0 0 0 1 0 0 0 0 0 1 0 0 0 0 0 0 0 0 0 0 0 0 0 0 0
21 20 16 12 14 23 14 21 21 15 10 17 11 24 35 11 21 2 0 0 0 0 0 0 0 0 0 0 0 0 0 0 0 0 0 0 0 0 0 0 0 0 0 0 0 0 0 0 0 0 0 0 0 0
6 8 11 14 13 8 5 12 22 16 12 10 11 9 29 36 12 1 0 0 0 0 0 0 0 0 0 0 0 0 0 0 0 0 0 0 0 0 0 0 0 0 0 0 0 0 0 0 0 0 0 0 0 0
14 9 6 8 19 9 3 5 18 16 9 12 11 8 22 35 28 0 0 0 0 0 0 0 0 0 0 0 0 0 0 0 0 0 0 0 0 0 0 0 0 0 0 0 0 0 0 0 0 0 0 0 0 0
2 7 7 15 5 10 18 8 11 22 9 1 9 16 22 22 40 0 0 0 0 0 0 0 0 0 0 0 0 0 0 0 0 0 0 0 0 0 0 0 0 0 0 0 0 0 0 0 0 0 0 0 0 0
5 12 10 12 5 22 21 25 22 26 18 10 7 17 30 39 27 0 0 0 0 2 0 0 0 1 0 0 0 0 0 0 0 0 0 0 0 0 0 0 0 0 0 0 0 0 0 0 0 0 0 0 0 0
17 12 16 9 6 13 10 15 13 8 12 15 22 7 44 23 37 5 0 0 1 0 0 0 0 1 0 1 0 0 0 0 0 0 0 0 0 0 0 0 0 0 0 0 0 0 0 0 0 0 0 0 0 0
11 10 7 4 3 6 17 10 8 9 10 28 36 16 24 1 0 0 0 2 0 0 0 0 0 0 0 1 0 0 0 0 0 0 0 0 0 0 0 0 0 0 0 0 0 0 0 0 0 0 0 0 0 0
9 13 4 6 8 9 5 5 7 11 13 36 25 6 0 0 0 4 3 0 0 0 0 0 0 0 1 1 2 0 0 0 0 0 0 0 0 0 0 0 0 0 0 0 0 0 0 0 0 0 0 0 0 0
12 11 8 2 1 0 6 15 15 14 17 19 7 0 0 2 0 0 0 0 0 0 0 0 0 0 0 0 0 0 0 0 0 0 0 0 0 0 0 0 0 0 0 0 0 0 0 0 0 0 0 0 0 0
12 7 13 8 5 9 29 23 36 21 6 8 3 0 0 0 0 0 0 0 0 0 0 0 0 0 0 0 0 0 0 0 0 0 0 0 0 0 0 0 0 0 0 0 0 0 0 0 0 0 0 0 0 0
7 3 0 11 15 1 14 12 16 16 0 0 1 7 0 0 0 0 0 0 0 0 0 0 0 0 0 0 0 0 0 0 0 0 0 0 0 0 0 0 0 0 0 0 0 0 0 0 0 0 0 0 0 0
1 2 10 8 0 3 4 44 43 18 13 8 0 0 0 0 0 0 0 0 0 0 0 0 0 0 0 0 0 0 0 0 0 0 0 0 0 0 0 0 0 0 0 0 0 0 0 0 0 0 0 0 0 0
0 1 0 0 0 2 27 62 75 22 0 0 0 0 0 0 0 0 0 0 0 0 0 0 0 0 1 0 0 0 0 0 0 0 0 0 0 0 0 0 0 0 0 0 0 0 0 0 0 0 0 0 0 0
0 0 0 0 2 2 35 13 0 0 0 0 0 0 0 0 0 0 0 0 0 0 0 0 0 0 0 0 0 0 0 0 0 0 0 0 0 0 0 0 0 0 0 0 0 0 0 0 0 0 0 0 0 0
0 0 0 0 1 2 0 0 0 0 0 0 0 0 0 0 0 0 0 0 0 0 0 0 0 0 0 0 0 0 0 0 0 0 0 0 0 0 0 0 0 0 0 0 0 0 0 0 0 0 0 0 0 0
0 0 0 0 0 0 0 0 0 0 0 0 0 0 0 0 0 0 0 0 0 0 0 0 0 0 0 0 0 0 0 0 0 0 0 0 0 0 0 0 0 0 0 0 0 0 0 0 0 0 0 0 0 0
0 0 0 0 0 0 0 0 0 0 0 0 0 0 0 0 0 0 0 0 0 0 0 0 0 0 0 0 0 0 0 0 0 0 0 0 0 0 0 0 0 0 0 0 0 0 0 0 0 0 0 0 0 0
0 0 0 0 0 0 0 0 0 0 0 0 0 0 0 0 0 0 0 0 0 0 0 0 0 0 0 0 0 0 0 0 0 0 0 0 0 0 0 0 0 0 0 0 0 0 0 0 0 0 0 0 0 0
0 0 0 0 0 0 0 0 0 0 0 0 0 0 0 0 0 0 0 0 0 0 0 0 0 0 0 0 0 0 0 0 0 0 0 0 0 0 0 0 0 0 0 0 0 0 0 0 0 0 0 0 0 0
0 0 0 0 0 0 0 0 0 0 0 0 0 0 0 0 0 0 0 0 0 0 0 0 0 0 0 0 0 0 0 0 0 0 0 0 0 0 0 0 0 0 0 0 0 0 0 0 0 0 0 0 0 0
0 0 0 0 0 0 0 0 0 0 0 0 0 0 0 0 0 0 0 0 0 0 0 0 0 0 0 0 0 0 0 0 0 0 0 0 0 0 0 0 0 0 0 0 0 0 0 0 0 0 0 0 0 0
0 0 0 0 0 0 0 0 0 0 0 0 0 0 0 0 0 0 0 0 0 0 0 0 0 0 0 0 0 0 0 0 0 0 0 0 0 0 0 0 0 0 0 0 0 0 0 0 0 0 0 0 0 0
0 0 0 0 0 0 0 0 0 0 0 0 0 0 0 0 0 0 0 0 0 0 0 0 0 0 0 0 0 0 0 0 0 0 0 0 0 0 0 0 0 0 0 0 0 0 0 0 0 0 0 0 0 0
0 0 0 0 0 0 0 0 0 0 0 0 0 0 0 0 0 0 0 0 0 0 0 0 0 0 0 0 0 0 0 0 0 0 0 0 0 0 0 0 0 0 0 0 0 0 0 0 0 0 0 0 0 0
0 0 0 0 0 0 0 0 0 0 0 0 0 0 0 0 0 0 0 0 0 0 0 0 0 0 0 0 0 0 0 0 0 0 0 0 0 0 0 0 0 0 0 0 0 0 0 0 0 0 0 0 0 0
0 0 0 0 0 0 0 0 0 0 0 0 0 0 0 0 0 0 0 0 0 0 0 0 0 0 0 0 0 0 0 0 0 0 0 0 0 0 0 0 0 0 0 0 0 0 0 0 0 0 0 0 0 0
0 0 0 0 0 0 0 0 0 0 0 0 0 0 0 0 0 0 0 0 0 0 0 0 0 0 0 0 0 0 0 0 0 0 0 0 0 0 0 0 0 0 0 0 0 0 0 0 0 0 0 0 0 0
0 0 0 0 0 0 0 0 0 0 0 0 0 0 0 0 0 0 0 0 0 0 0 0 0 0 0 0 0 0 0 0 0 0 0 0 0 0 0 0 0 0 0 0 0 0 0 0 0 0 0 0 0 0
0 0 0 0 0 0 0 0 0 0 0 0 0 0 0 0 0 0 0 0 0 0 0 0 0 0 0 0 0 0 0 0 0 0 0 0 0 0 0 0 0 0 0 0 0 0 0 0 0 0 0 0 0 0
0 0 0 0 0 0 0 0 0 0 0 0 0 0 0 0 0 0 0 0 0 0 0 0 0 0 0 0 0 0 0 0 0 0 0 0 0 0 0 0 0 0 0 0 0 0 0 0 0 0 0 0 0 0
0 0 0 0 0 0 0 0 0 0 0 0 0 0 0 0 0 0 0 0 0 0 0 0 0 0 0 0 0 0 0 0 0 0 0 0 0 0 0 0 0 0 0 0 0 0 0 0 0 0 0 0 0 0
CIN
-1 -3 -3 -5 -2 -1 -1 -1 0 -1 -1 -12 -2 -1 0 -1 0 -2 0 0 0 0 0 0 0 0 0 0 0 0 0 0 0 0 0 0 0 0 0 0 0 0 0 0 0 0 0 0 0 0 0 0 0 0
-1 -2 -2 -1 -1 -2 -1 -2 -1 -1 -2 -1 -7 0 -1 0 0 0 0 0 0 0 0 0 0 0 0 0 0 0 0 0 0 0 0 0 0 0 0 0 0 0 0 0 0 0 0 0 0 0 0 0 0 0
-1 -1 -1 -1 -2 -1 -3 -1 -1 -1 -1 -8 -8 -1 0 0 0 -1 0 0 0 0 0 0 0 0 0 0 0 0 0 0 0 0 0 0 0 0 0 0 0 0 0 0 0 0 0 0 0 0 0 0 0 0
-1 -1 -1 -1 -1 -1 -2 -1 -2 -1 -1 -3 -5 -14 0 -1 -1 0 -11 0 0 0 0 0 0 0 0 0 0 0 0 0 0 0 0 0 0 0 0 0 0 0 0 0 0 0 0 0 0 0 0 0 0 0
-3 -2 -1 -1 -2 -2 -2 -2 -1 -1 -1 -1 -1 0 -1 0 -3 -1 0 0 0 0 0 0 0 0 0 0 0 0 0 0 0 0 0 0 0 0 0 0 0 0 0 0 0 0 0 0 0 0 0 0 0 0
-2 -2 -1 -1 -2 -2 -1 -3 -2 -1 0 -1 -1 -1 0 -4 -2 0 0 0 0 0 0 0 0 0 0 0 0 0 0 0 0 0 0 0 0 0 0 0 0 0 0 0 0 0 0 0 0 0 0 0 0 0
-4 -1 -1 -3 -3 -1 -1 -1 -2 -2 -1 -1 -1 0 0 -2 0 0 0 0 0 0 0 0 0 0 0 0 0 0 0 0 0 0 0 0 0 0 0 0 0 0 0 0 0 0 0 0 0 0 0 0 0 0
-2 -1 -1 -1 -1 -1 -1 -1 -1 -5 -3 -1 -2 -1 0 0 -7 0 0 0 0 -1 0 0 0 0 0 0 0 0 0 0 0 0 0 0 0 0 0 0 0 0 0 0 0 0 0 0 0 0 0 0 0 0
-1 -1 -1 -3 -1 -1 -2 -3 -1 -1 0 0 -2 -1 0 0 0 0 0 0 0 0 0 0 0 0 0 0 0 0 0 0 0 0 0 0 0 0 0 0 0 0 0 0 0 0 0 0 0 0 0 0 0 0
-1 -1 -4 -1 -1 -1 -1 -1 -1 -1 0 0 -7 -2 0 0 0 0 0 0 0 0 0 0 0 0 -1 -1 0 0 0 0 0 0 0 0 0 0 0 0 0 0 0 0 0 0 0 0 0 0 0 0 0 0
-1 -1 -1 -1 -1 -1 -2 -5 -6 -1 -1 -1 -3 0 0 0 0 0 0 0 0 0 0 0 0 0 0 -1 0 0 0 0 0 0 0 0 0 0 0 0 0 0 0 0 0 0 0 0 0 0 0 0 0 0
-1 -1 -1 -1 -1 -1 -2 -4 0 -1 -1 -6 -14 0 0 0 0 0 0 0 0 0 0 0 0 0 0 0 0 0 0 0 0 0 0 0 0 0 0 0 0 0 0 0 0 0 0 0 0 0 0 0 0 0
-1 -3 0 0 0 0 0 0 -8 -1 0 0 -7 -15 0 0 0 0 0 0 0 0 0 0 0 0 0 0 0 0 0 0 0 0 0 0 0 0 0 0 0 0 0 0 0 0 0 0 0 0 0 0 0 0
0 -2 0 0 0 0 0 -4 -3 -2 -4 -21 0 -1 0 0 0 0 0 0 0 0 0 0 0 0 0 0 0 0 0 0 0 0 0 0 0 0 0 0 0 0 0 0 0 0 0 0 0 0 0 0 0 0
0 -1 -1 0 0 0 -1 -2 -1 -4 0 0 0 0 0 0 0 0 0 0 0 0 0 0 0 0 0 0 0 0 0 0 0 0 0 0 0 0 0 0 0 0 0 0 0 0 0 0 0 0 0 0 0 0
0 0 0 0 0 0 -1 -29 0 0 0 0 0 0 0 0 0 0 0 0 0 0 0 0 0 0 0 0 0 0 0 0 0 0 0 0 0 0 0 0 0 0 0 0 0 0 0 0 0 0 0 0 0 0
0 0 0 0 0 0 0 0 0 0 0 0 0 0 0 0 0 0 0 0 0 0 0 0 0 0 0 0 0 0 0 0 0 0 0 0 0 0 0 0 0 0 0 0 0 0 0 0 0 0 0 0 0 0
0 0 0 0 0 0 0 0 0 0 0 0 0 0 0 0 0 0 0 0 0 0 0 0 0 0 0 0 0 0 0 0 0 0 0 0 0 0 0 0 0 0 0 0 0 0 0 0 0 0 0 0 0 0
0 0 0 0 0 0 0 0 0 0 0 0 0 0 0 0 0 0 0 0 0 0 0 0 0 0 0 0 0 0 0 0 0 0 0 0 0 0 0 0 0 0 0 0 0 0 0 0 0 0 0 0 0 0
0 0 0 0 0 0 0 0 0 0 0 0 0 0 0 0 0 0 0 0 0 0 0 0 0 0 0 0 0 0 0 0 0 0 0 0 0 0 0 0 0 0 0 0 0 0 0 0 0 0 0 0 0 0
0 0 0 0 0 0 0 0 0 0 0 0 0 0 0 0 0 0 0 0 0 0 0 0 0 0 0 0 0 0 0 0 0 0 0 0 0 0 0 0 0 0 0 0 0 0 0 0 0 0 0 0 0 0
0 0 0 0 0 0 0 0 0 0 0 0 0 0 0 0 0 0 0 0 0 0 0 0 0 0 0 0 0 0 0 0 0 0 0 0 0 0 0 0 0 0 0 0 0 0 0 0 0 0 0 0 0 0
0 0 0 0 0 0 0 0 0 0 0 0 0 0 0 0 0 0 0 0 0 0 0 0 0 0 0 0 0 0 0 0 0 0 0 0 0 0 0 0 0 0 0 0 0 0 0 0 0 0 0 0 0 0
0 0 0 0 0 0 0 0 0 0 0 0 0 0 0 0 0 0 0 0 0 0 0 0 0 0 0 0 0 0 0 0 0 0 0 0 0 0 0 0 0 0 0 0 0 0 0 0 0 0 0 0 0 0
0 0 0 0 0 0 0 0 0 0 0 0 0 0 0 0 0 0 0 0 0 0 0 0 0 0 0 0 0 0 0 0 0 0 0 0 0 0 0 0 0 0 0 0 0 0 0 0 0 0 0 0 0 0
0 0 0 0 0 0 0 0 0 0 0 0 0 0 0 0 0 0 0 0 0 0 0 0 0 0 0 0 0 0 0 0 0 0 0 0 0 0 0 0 0 0 0 0 0 0 0 0 0 0 0 0 0 0
0 0 0 0 0 0 0 0 0 0 0 0 0 0 0 0 0 0 0 0 0 0 0 0 0 0 0 0 0 0 0 0 0 0 0 0 0 0 0 0 0 0 0 0 0 0 0 0 0 0 0 0 0 0
0 0 0 0 0 0 0 0 0 0 0 0 0 0 0 0 0 0 0 0 0 0 0 0 0 0 0 0 0 0 0 0 0 0 0 0 0 0 0 0 0 0 0 0 0 0 0 0 0 0 0 0 0 0
0 0 0 0 0 0 0 0 0 0 0 0 0 0 0 0 0 0 0 0 0 0 0 0 0 0 0 0 0 0 0 0 0 0 0 0 0 0 0 0 0 0 0 0 0 0 0 0 0 0 0 0 0 0
0 0 0 0 0 0 0 0 0 0 0 0 0 0 0 0 0 0 0 0 0 0 0 0 0 0 0 0 0 0 0 0 0 0 0 0 0 0 0 0 0 0 0 0 0 0 0 0 0 0 0 0 0 0
0 0 0 0 0 0 0 0 0 0 0 0 0 0 0 0 0 0 0 0 0 0 0 0 0 0 0 0 0 0 0 0 0 0 0 0 0 0 0 0 0 0 0 0 0 0 0 0 0 0 0 0 0 0
0 0 0 0 0 0 0 0 0 0 0 0 0 0 0 0 0 0 0 0 0 0 0 0 0 0 0 0 0 0 0 0 0 0 0 0 0 0 0 0 0 0 0 0 0 0 0 0 0 0 0 0 0 0
0 0 0 0 0 0 0 0 0 0 0 0 0 0 0 0 0 0 0 0 0 0 0 0 0 0 0 0 0 0 0 0 0 0 0 0 0 0 0 0 0 0 0 0 0 0 0 0 0 0 0 0 0 0
Wind_Speed
16 19 33 36 37 39 40 41 44 46 44 42 39 38 33 32 26 26 29 26 28 36 34 31 31 30 31 32 34 29 28 29 31 37 38 38 40 38 40 37 39 39 40 44 47 50 55 26 23 33 29 21 18 16
17 19 27 35 37 39 40 41 42 43 45 42 40 39 35 32 27 25 27 24 24 29 31 26 27 24 26 26 27 26 28 27 29 32 31 30 35 33 36 46 34 42 39 41 39 41 28 20 23 20 19 20 20 21
25 28 30 35 36 37 38 40 42 43 45 43 40 39 38 32 28 26 24 22 24 29 29 28 31 23 18 20 18 26 25 22 26 24 26 28 33 30 39 39 34 33 28 34 31 29 23 19 18 18 19 20 20 20
29 31 34 33 35 35 35 37 39 40 42 43 41 40 40 36 31 27 29 23 24 24 32 30 23 24 22 19 19 20 19 18 19 22 25 28 30 25 29 29 31 28 23 29 30 25 22 21 20 20 21 24 24 22
33 35 36 36 37 37 38 39 39 40 40 41 42 39 40 38 32 26 27 26 24 26 30 28 23 23 24 22 21 19 19 21 24 26 27 29 24 24 25 27 32 25 28 31 33 22 25 23 20 20 24 25 24 21
37 39 36 34 35 37 38 38 38 39 41 43 43 39 39 36 25 23 31 30 27 23 25 29 21 23 20 20 20 19 20 23 26 27 28 26 24 25 30 35 29 25 23 22 24 18 20 22 24 25 25 24 23 23
36 35 35 34 32 33 32 31 33 36 39 41 42 38 36 32 28 30 29 24 20 19 23 28 28 22 16 17 20 22 21 22 24 26 28 27 26 25 32 39 25 21 18 19 17 19 26 25 26 22 22 23 24 25
34 34 32 31 31 32 31 30 30 30 32 34 36 35 34 31 32 31 25 16 16 23 23 29 28 24 18 22 22 19 21 21 24 25 24 29 25 27 36 28 23 21 20 20 21 23 24 23 22 23 23 24 26 28
33 32 31 33 32 30 30 28 29 30 30 30 30 30 30 30 29 30 20 15 19 22 28 28 32 32 17 20 19 19 19 25 20 27 26 23 28 34 29 26 23 22 23 24 23 23 24 25 25 25 26 27 30 31
32 33 35 35 35 34 32 30 29 29 29 30 26 26 30 28 20 13 19 24 25 26 25 29 22 25 19 20 21 20 21 24 29 25 18 29 33 21 21 21 20 22 23 23 25 26 25 26 26 25 26 26 27 28
34 34 35 36 36 36 35 33 34 31 28 27 27 26 20 17 21 23 26 30 27 26 24 24 25 23 20 22 21 21 22 21 30 28 26 30 35 26 24 24 24 25 26 26 25 26 26 26 26 27 27 27 28 29
32 32 31 33 36 39 41 42 41 34 26 26 23 21 19 24 23 31 30 20 29 35 21 24 23 19 18 16 20 21 24 23 31 18 26 34 29 23 23 23 25 25 26 26 25 24 24 25 26 27 27 28 28 27
25 25 30 30 32 40 43 44 33 22 26 21 27 29 23 25 31 36 38 32 24 24 25 24 22 19 18 18 20 20 25 28 16 26 32 31 24 22 23 24 24 23 22 21 22 23 24 25 26 27 28 28 27 26
12 14 19 24 29 29 27 20 20 22 25 24 27 32 32 29 33 28 30 30 24 21 19 18 18 18 17 19 19 25 23 20 30 34 35 25 22 24 23 22 21 22 24 25 25 26 27 27 26 25 25 25 23 22
14 16 21 24 28 24 16 9 23 24 22 21 24 32 25 25 25 24 22 21 19 15 16 16 15 17 18 20 20 20 23 28 28 29 23 20 20 20 21 21 22 24 25 26 27 26 25 24 23 23 23 22 21 20
18 18 22 23 23 16 12 12 18 22 20 17 21 24 20 21 21 21 20 17 15 15 14 14 17 20 20 17 21 24 24 27 23 19 16 17 18 19 20 21 22 24 24 23 23 22 21 21 22 21 21 21 20 20
11 15 20 17 16 8 8 21 15 20 18 17 18 24 22 17 19 18 19 18 17 14 16 15 19 20 13 21 22 20 23 19 15 15 16 18 18 20 20 21 22 22 21 21 20 20 20 19 19 20 21 22 21 21
14 17 17 15 13 9 15 16 17 15 19 20 14 14 17 15 15 16 17 20 21 18 17 18 16 19 21 21 21 18 16 16 17 17 18 18 20 21 21 21 22 21 20 19 19 20 21 22 22 22 22 22 22 22
15 18 17 14 11 10 13 14 15 18 14 19 19 12 11 10 8 11 12 12 8 9 10 15 17 19 19 19 17 17 18 18 19 21 19 19 20 19 19 18 18 19 19 19 19 20 21 22 22 23 23 23 23 24
16 18 18 15 12 12 14 15 14 13 17 15 19 17 14 14 16 11 8 9 9 12 14 16 17 17 16 16 17 18 18 19 20 19 19 20 20 19 19 19 19 19 19 20 22 23 23 23 24 25 25 24 24 24
19 19 18 14 12 9 11 15 16 16 17 15 17 17 14 11 13 13 12 13 11 15 15 15 15 15 16 15 16 16 17 18 18 18 19 20 19 18 18 18 19 19 21 23 24 25 24 25 25 25 25 25 25 24
20 20 16 15 13 13 11 11 13 14 16 15 14 14 14 13 13 13 13 12 13 15 16 17 17 17 16 16 18 18 18 17 16 16 17 18 20 20 21 22 22 22 23 24 25 25 25 25 25 25 25 25 25 25
19 17 15 16 15 16 17 14 14 14 17 18 16 16 16 15 15 14 13 13 13 17 18 16 16 16 16 17 17 18 18 17 17 18 19 19 19 18 20 21 22 23 23 24 24 25 26 26 25 25 24 24 25 25
15 16 17 16 16 18 19 17 16 16 15 16 17 18 17 16 14 13 13 13 16 18 18 18 17 16 16 17 18 20 20 19 18 19 18 18 18 19 19 20 21 23 24 24 24 25 25 26 26 25 25 26 26 26
13 16 16 17 16 17 18 19 19 18 18 17 17 17 17 17 17 18 18 18 19 20 20 19 18 19 18 19 20 21 20 19 19 18 20 19 19 20 20 21 22 23 25 25 27 27 28 27 27 27 27 28 28 28
10 14 15 16 16 15 16 18 18 17 18 19 18 18 18 18 20 22 19 19 19 19 19 19 19 18 18 19 19 21 21 19 17 17 19 19 20 20 22 23 24 25 26 26 27 28 29 29 29 29 29 29 29 30
9 11 12 12 13 13 11 11 12 13 16 18 18 18 19 20 21 18 15 16 15 15 15 16 17 17 18 19 20 20 20 20 18 17 17 19 19 21 23 25 27 27 29 29 28 29 30 31 31 32 32 31 31 32
8 9 8 10 7 8 9 11 12 14 15 15 14 15 15 16 16 13 12 13 12 13 14 16 18 18 19 20 21 21 21 22 19 19 20 20 20 21 25 28 28 30 30 29 30 30 31 32 34 33 34 36 38 36
7 10 9 8 7 8 10 11 13 14 15 14 13 13 13 11 10 10 11 11 12 14 16 18 20 21 20 20 21 22 22 23 23 24 26 27 27 25 30 31 31 31 31 31 32 32 33 35 36 38 39 40 40 39
8 7 6 7 7 8 10 9 10 11 10 9 7 8 7 8 11 11 11 13 14 16 17 19 21 23 24 24 25 26 23 22 24 26 28 29 30 32 33 33 33 33 33 33 34 36 37 39 39 40 40 41 41 41
7 7 8 8 8 6 7 8 11 11 11 11 11 10 8 9 11 14 15 16 17 19 21 23 25 26 27 28 28 30 29 24 26 29 29 30 31 32 32 33 33 33 34 34 36 39 41 42 42 43 43 43 43 43
11 11 10 10 8 8 9 10 11 11 11 12 12 13 13 14 14 15 16 20 24 25 24 24 27 29 29 29 27 26 27 28 29 31 32 32 32 31 32 32 32 33 33 37 39 40 39 40 40 40 41 41 41 41
13 13 13 12 12 13 14 14 13 13 14 14 15 16 16 16 16 18 18 19 26 27 25 26 28 30 31 31 31 30 26 27 29 31 32 30 30 30 31 31 30 33 36 37 36 36 36 36 36 36 37 37 37 37
Wind_Direction
293 301 288 278 274 270 266 263 259 256 256 257 260 257 257 259 249 252 257 256 261 259 263 266 263 262 264 260 258 263 262 261 258 255 257 260 261 260 264 266 265 261 262 264 266 270 272 280 276 271 286 294 299 293
293 298 295 281 276 272 267 263 260 256 252 254 255 255 254 255 250 251 257 258 264 265 266 271 271 268 267 270 265 259 264 265 261 259 262 266 266 266 264 264 270 267 269 269 271 275 284 276 281 283 292 292 290 289
294 292 292 284 279 274 268 264 261 256 251 250 252 254 251 253 247 248 258 256 261 264 268 264 262 269 276 277 283 265 268 272 268 273 269 270 267 269 266 268 272 271 276 275 275 281 282 278 286 279 287 289 291 291
290 288 284 285 278 274 272 268 263 257 254 247 249 252 249 252 251 247 254 255 259 266 261 263 271 269 275 274 279 283 279 278 278 276 273 271 271 276 274 279 273 277 273 274 278 283 287 280 280 277 281 289 292 290
286 282 278 276 271 272 271 266 263 257 253 248 247 251 248 251 251 247 254 252 253 262 262 264 271 274 274 268 271 276 275 274 273 273 273 271 277 278 281 281 277 277 278 276 279 278 285 277 273 278 284 285 288 287
276 270 272 275 272 272 268 263 260 258 252 249 245 249 247 248 242 242 252 252 244 261 264 260 277 272 275 267 268 270 274 274 272 273 275 279 281 280 277 276 286 283 283 287 286 280 288 291 282 282 282 288 290 289
272 268 265 268 276 276 274 270 263 258 254 247 239 246 244 246 237 238 250 254 220 248 263 263 265 274 276 273 274 270 275 276 275 274 274 277 278 279 278 275 285 289 287 293 293 288 289 290 291 294 294 295 294 294
269 267 269 271 273 271 271 270 266 263 258 242 239 243 244 245 245 244 252 254 213 247 262 258 262 265 269 268 267 277 274 275 278 276 279 274 277 280 278 284 283 285 288 289 291 295 297 298 295 299 300 300 297 296
268 268 268 263 264 268 267 270 265 261 251 241 240 243 243 240 248 240 237 221 242 255 251 257 252 256 260 268 273 275 277 271 285 272 273 276 275 273 285 285 287 289 292 298 295 295 297 296 296 297 297 296 295 295
268 266 263 261 256 258 262 263 264 256 247 239 239 241 240 237 242 197 236 236 247 253 256 254 255 255 252 260 267 269 274 271 271 274 282 275 276 285 297 301 302 304 304 303 299 296 299 298 298 300 299 300 300 301
268 267 264 256 253 250 253 258 252 247 244 235 233 239 246 215 234 239 243 239 244 249 250 248 248 247 263 258 262 271 271 274 271 275 270 276 276 283 297 296 300 301 303 303 302 301 303 303 303 303 303 303 303 303
271 267 262 259 257 250 247 245 241 239 242 236 231 235 242 233 242 236 237 250 246 240 249 240 242 250 261 268 271 267 272 273 273 277 274 276 283 292 298 299 302 305 305 304 306 306 306 306 306 305 305 305 306 307
277 274 269 269 275 272 258 232 192 219 232 233 233 232 245 238 240 235 234 241 253 240 239 238 239 252 262 271 273 274 270 272 283 275 276 282 290 295 299 302 304 308 310 311 312 313 313 311 312 310 308 309 310 309
300 304 299 296 302 289 273 256 190 191 224 236 227 230 242 242 238 243 237 241 248 248 232 219 237 256 263 264 277 271 279 279 272 272 276 287 289 298 305 309 309 309 311 311 311 313 313 312 313 315 315 314 314 314
288 299 312 310 315 297 294 193 170 199 224 239 232 232 248 250 245 242 245 242 246 229 216 224 248 263 263 269 275 279 273 276 276 276 286 295 302 307 308 309 311 312 313 314 314 315 316 317 317 319 321 323 324 323
272 280 303 309 316 290 106 142 199 213 231 252 241 237 249 249 241 237 234 231 232 214 223 249 257 261 266 265 271 273 273 276 284 293 302 308 310 312 313 316 316 317 320 321 322 323 324 324 323 324 327 327 327 327
315 307 298 289 310 258 204 209 219 222 241 248 253 239 247 254 236 235 229 226 229 218 233 254 259 264 270 272 273 282 279 290 300 303 308 311 313 315 317 318 319 323 327 328 328 328 329 330 330 328 324 325 326 327
307 299 302 289 274 257 221 228 227 243 245 238 250 241 236 245 232 230 233 234 232 240 253 263 275 270 270 272 277 287 291 296 301 305 309 313 316 318 320 317 318 321 325 326 326 325 325 324 322 321 320 320 320 321
321 321 315 304 288 258 240 242 246 242 258 231 229 239 231 226 240 238 234 243 250 262 265 274 278 272 280 288 287 290 293 295 297 302 311 322 326 325 326 328 329 328 327 327 328 328 328 327 324 322 321 321 318 319
312 323 318 313 287 262 247 247 258 247 234 234 225 230 230 227 229 240 253 260 259 268 282 285 289 294 295 299 298 299 303 311 308 306 310 317 325 324 326 327 324 323 323 322 323 323 323 323 323 322 321 320 319 319
312 301 306 297 271 292 265 249 244 236 228 227 221 222 227 240 243 247 257 279 272 281 286 299 306 308 308 309 313 314 314 321 314 316 313 313 326 330 329 328 326 325 321 320 321 323 324 324 324 323 320 319 319 318
298 305 290 290 267 261 268 273 242 239 232 225 235 238 237 242 252 268 281 289 283 297 299 302 305 305 308 314 316 319 318 325 329 325 325 323 319 318 317 316 317 319 320 321 322 323 324 325 325 323 320 319 319 318
292 294 290 291 262 258 249 265 243 247 234 236 242 244 249 257 268 282 280 293 299 307 308 311 313 315 317 322 324 323 327 328 325 323 322 322 323 324 322 322 322 322 322 325 326 326 326 327 327 326 325 323 321 320
303 287 280 273 272 256 251 250 251 248 247 244 248 251 259 268 282 291 288 297 307 312 316 316 318 319 322 329 330 329 328 328 323 323 324 321 322 324 326 325 327 328 327 327 327 327 328 328 328 327 326 322 320 319
276 281 275 271 276 259 251 249 252 252 249 253 256 262 269 280 279 284 284 294 302 309 314 318 321 321 323 324 323 323 327 325 324 323 323 323 320 321 323 326 329 331 331 328 326 326 326 328 327 325 324 322 319 318
287 293 276 274 269 261 261 252 254 255 255 259 266 272 279 282 280 282 290 299 305 312 317 321 322 323 326 325 322 321 321 326 330 328 328 330 327 325 323 322 322 324 330 329 326 324 324 325 324 322 321 321 320 318
304 287 288 295 271 263 261 269 272 270 267 270 273 276 280 280 284 292 301 310 314 323 329 331 331 330 328 328 328 330 330 330 328 330 332 332 332 333 330 324 320 321 323 324 323 321 320 319 318 317 315 316 316 316
320 313 302 291 293 294 268 275 279 279 281 286 283 286 288 291 292 298 309 316 323 329 334 336 337 332 330 329 329 328 328 327 327 326 325 325 327 328 326 324 323 321 321 321 320 319 318 316 314 314 313 311 310 312
293 281 283 306 296 307 308 295 295 294 292 289 290 294 300 306 312 315 322 329 333 333 330 328 328 329 329 331 332 331 329 327 324 319 317 316 317 320 322 322 322 322 322 321 320 319 317 315 313 311 310 310 310 310
318 283 297 316 323 327 315 310 325 324 330 331 357 45 15 344 337 337 338 335 332 331 331 331 329 328 325 323 322 322 325 327 328 324 318 317 317 317 319 320 320 320 321 320 318 317 316 315 314 313 311 310 310 310
271 316 351 358 7 350 338 345 14 20 20 23 26 29 14 359 352 352 350 341 334 328 325 323 323 325 323 320 320 318 319 325 323 322 322 319 319 319 321 321 322 322 321 320 318 316 314 313 313 312 311 310 310 310
335 341 346 6 1 328 329 340 345 351 343 344 340 335 334 331 328 329 336 334 330 327 325 324 321 320 323 322 324 324 322 320 321 322 320 320 320 322 322 323 324 324 323 321 319 318 318 317 317 316 315 315 315 314
337 335 340 341 333 329 320 323 334 340 338 337 335 335 335 334 333 334 338 343 333 329 329 329 326 324 322 323 323 324 328 327 326 324 323 324 324 325 326 327 329 327 325 325 325 325 325 324 324 323 322 321 320 321